Temp
77 78 80 80 80 80 80 80 79 79 79 79 79 79 79 79 79 79 79 79 80 80 81 80 80 80 80 80 80 79 79 79 80 80 80 80 80 80 80 80 80 78 78
79 79 80 80 80 80 79 79 79 79 79 79 79 79 79 79 79 79 79 79 80 80 81 81 80 80 80 80 80 79 79 79 79 80 80 80 80 80 80 80 79 78 78
79 79 80 79 80 79 79 79 79 79 79 79 79 79 79 79 79 79 79 79 80 80 81 80 80 80 80 80 79 79 79 79 79 80 80 75 75 80 80 80 79 79 78
79 79 79 79 79 79 79 79 79 79 79 79 78 79 79 79 79 79 79 80 80 80 80 80 80 80 80 79 79 79 79 79 79 80 77 79 81 80 81 80 80 79 78
78 78 79 79 79 79 79 79 78 78 78 79 79 79 79 78 78 78 79 79 80 81 80 80 80 79 79 79 78 78 78 79 79 79 76 76 76 81 80 80 79 79 78
78 78 79 79 79 79 79 79 78 78 78 78 78 79 78 78 78 78 79 79 80 80 80 79 79 78 78 78 78 78 78 79 79 76 78 78 76 80 80 80 80 79 78
77 78 79 79 79 79 79 79 78 78 78 78 78 79 78 78 78 78 79 79 79 80 79 79 78 78 77 78 78 78 78 79 77 76 78 79 78 78 79 79 79 79 78
77 77 78 79 79 78 79 78 78 78 78 78 78 78 78 78 78 78 78 79 79 79 79 78 78 77 77 77 77 77 78 79 77 75 77 75 77 78 80 79 79 79 78
79 77 78 78 79 79 78 78 78 77 77 77 77 77 78 78 78 78 77 78 78 77 77 77 77 77 77 77 77 77 77 79 70 74 80 76 78 78 79 79 79 78 78
77 77 78 80 80 79 77 78 77 77 77 77 77 77 78 78 77 77 76 77 77 77 77 77 77 77 76 76 76 77 77 78 70 72 75 75 78 79 79 78 78 77 77
77 75 76 77 80 79 78 77 77 78 77 77 77 77 75 75 75 76 76 77 77 77 77 76 76 76 76 77 77 77 78 70 70 73 73 77 77 79 78 78 77 77 76
75 75 75 76 78 79 80 78 75 77 75 75 75 75 75 73 73 75 76 77 77 77 77 76 76 76 76 71 71 75 71 71 71 73 73 77 78 79 78 78 77 77 77
77 77 76 75 76 76 77 78 76 78 76 75 75 73 71 72 73 71 72 73 71 75 71 72 71 71 71 71 72 72 73 73 73 75 76 77 77 79 78 77 77 77 76
78 77 77 77 76 76 76 77 77 76 75 74 75 71 71 70 70 70 71 70 69 69 68 68 68 70 70 73 73 77 77 78 73 70 74 77 77 78 78 77 77 77 76
77 78 77 77 77 77 75 75 75 73 73 73 72 72 71 71 70 70 70 69 68 67 68 68 69 70 71 73 77 80 81 76 75 71 73 77 76 77 77 77 77 77 76
79 78 78 78 79 76 75 74 74 73 73 72 73 73 72 73 72 72 70 70 68 70 69 70 70 70 71 75 77 81 79 78 76 71 70 71 75 75 76 77 77 77 77
79 81 77 77 79 76 76 75 75 75 74 73 73 73 74 73 73 73 72 70 71 71 71 70 71 72 73 77 76 79 77 76 73 72 70 68 71 75 75 75 76 77 76
78 79 78 81 79 78 77 73 73 76 75 75 74 73 74 74 75 73 72 72 71 71 72 73 74 71 69 71 71 72 73 73 73 72 71 69 69 70 73 75 76 76 76
76 77 73 72 75 77 76 71 69 72 75 77 76 74 75 75 75 75 74 72 72 72 75 75 70 70 68 68 71 70 70 69 71 74 71 70 68 68 67 72 75 75 75
73 77 75 72 71 72 71 70 69 69 71 78 77 76 75 75 75 75 72 71 72 71 69 70 70 69 68 68 72 70 68 68 68 68 70 71 69 69 68 69 67 69 73
70 72 74 72 71 70 70 70 69 68 69 76 78 77 76 76 74 72 70 71 71 70 69 70 68 68 66 65 64 64 64 66 67 70 69 67 70 72 70 70 66 65 67
69 71 74 73 71 71 70 71 70 71 70 77 79 76 77 77 74 72 71 70 70 69 69 69 68 66 64 63 60 59 58 63 66 66 66 70 66 67 70 68 66 65 63
68 69 73 74 72 71 72 71 72 72 71 73 77 76 76 77 75 73 72 70 70 69 68 67 67 65 62 62 62 61 56 56 57 61 61 62 60 62 61 62 63 63 61
71 69 74 74 72 71 72 69 71 73 72 76 77 79 77 76 74 73 72 71 70 67 66 66 66 64 63 61 62 64 61 60 55 56 58 59 60 61 58 59 58 61 59
73 69 74 74 72 73 73 75 73 74 78 73 72 76 76 72 74 73 71 69 67 67 64 64 64 63 62 60 60 59 57 57 56 55 52 54 56 57 56 56 55 56 58
69 66 68 72 71 73 73 74 74 75 72 69 70 69 71 73 71 71 70 68 66 65 64 63 62 61 60 58 59 61 56 55 53 53 50 49 49 52 54 54 54 53 54
MSLP
1007.09 1007.55 1007.41 1007.25 1007.67 1007.94 1008.11 1008.45 1008.80 1009.09 1009.46 1009.75 1009.85 1010.04 1010.09 1010.26 1010.64 1010.91 1011.22 1011.47 1011.68 1011.95 1012.23 1012.45 1012.57 1012.70 1012.90 1013.06 1013.15 1013.24 1013.29 1013.34 1013.44 1013.63 1013.85 1013.96 1013.88 1013.77 1013.67 1013.89 1014.04 1014.24 1014.32
1005.86 1006.90 1007.36 1007.53 1007.77 1008.07 1008.22 1008.56 1008.89 1009.18 1009.54 1009.85 1010.16 1010.36 1010.47 1010.56 1010.81 1011.16 1011.48 1011.69 1011.89 1012.10 1012.38 1012.51 1012.63 1012.81 1013.01 1013.17 1013.35 1013.48 1013.55 1013.69 1013.86 1013.94 1013.97 1013.95 1013.79 1013.85 1013.79 1013.83 1014.06 1014.22 1014.35
1005.64 1006.56 1007.17 1007.47 1007.78 1008.04 1008.39 1008.65 1008.98 1009.29 1009.60 1009.83 1010.17 1010.42 1010.71 1010.88 1011.02 1011.30 1011.63 1011.89 1012.11 1012.30 1012.48 1012.63 1012.75 1012.92 1013.14 1013.30 1013.50 1013.68 1013.72 1013.86 1014.02 1013.97 1014.06 1014.15 1014.08 1014.04 1013.92 1013.93 1014.07 1014.14 1014.25
1005.38 1006.47 1006.84 1007.36 1007.75 1008.02 1008.36 1008.62 1009.03 1009.30 1009.63 1009.97 1010.21 1010.47 1010.78 1011.03 1011.23 1011.61 1011.87 1012.09 1012.28 1012.49 1012.66 1012.80 1012.90 1013.08 1013.19 1013.35 1013.56 1013.72 1013.83 1013.96 1014.12 1014.16 1014.19 1014.21 1014.14 1014.10 1014.06 1013.90 1013.98 1014.08 1014.20
1005.56 1006.22 1006.48 1007.12 1007.53 1007.95 1008.27 1008.61 1009.08 1009.34 1009.54 1009.90 1010.24 1010.58 1010.93 1011.16 1011.34 1011.67 1012.10 1012.23 1012.36 1012.59 1012.82 1012.97 1013.10 1013.23 1013.34 1013.43 1013.59 1013.79 1013.97 1014.12 1014.14 1014.13 1014.12 1014.04 1014.03 1014.00 1014.12 1013.95 1013.91 1013.93 1014.04
1005.69 1005.94 1006.26 1006.90 1007.32 1007.90 1008.33 1008.61 1008.98 1009.40 1009.63 1009.86 1010.14 1010.63 1011.09 1011.39 1011.58 1011.72 1012.02 1012.42 1012.50 1012.66 1012.92 1013.12 1013.29 1013.40 1013.44 1013.48 1013.54 1013.81 1013.99 1014.15 1014.12 1014.04 1013.71 1013.49 1013.54 1013.79 1014.12 1013.90 1013.78 1013.85 1013.88
1005.35 1005.76 1006.36 1007.05 1007.38 1007.85 1008.27 1008.59 1008.90 1009.36 1009.66 1009.95 1010.20 1010.65 1011.08 1011.38 1011.70 1011.88 1012.12 1012.36 1012.65 1012.89 1013.07 1013.25 1013.41 1013.47 1013.46 1013.52 1013.49 1013.66 1013.90 1014.05 1014.00 1013.92 1013.59 1013.34 1013.46 1013.90 1014.12 1013.89 1013.80 1013.81 1013.79
1004.99 1005.72 1006.32 1007.25 1007.67 1007.95 1008.30 1008.51 1008.88 1009.30 1009.63 1009.89 1010.19 1010.66 1011.11 1011.31 1011.60 1011.96 1012.22 1012.48 1012.74 1012.93 1013.18 1013.29 1013.40 1013.58 1013.58 1013.46 1013.45 1013.59 1013.69 1014.00 1014.02 1013.91 1013.66 1013.60 1013.77 1014.09 1013.99 1013.82 1013.72 1013.71 1013.63
1005.03 1005.99 1006.52 1007.04 1007.81 1008.17 1008.46 1008.67 1008.94 1009.28 1009.67 1010.11 1010.35 1010.69 1011.07 1011.38 1011.67 1011.92 1012.20 1012.46 1012.85 1013.06 1013.14 1013.31 1013.37 1013.56 1013.57 1013.52 1013.46 1013.58 1013.67 1013.96 1014.10 1013.82 1013.54 1013.80 1013.99 1014.06 1014.09 1013.96 1013.73 1013.65 1013.62
1004.90 1005.98 1006.50 1006.90 1007.75 1008.35 1008.55 1008.84 1009.04 1009.41 1009.79 1010.16 1010.53 1010.93 1011.12 1011.41 1011.81 1012.12 1012.32 1012.48 1012.79 1013.06 1013.17 1013.27 1013.42 1013.51 1013.62 1013.58 1013.46 1013.48 1013.71 1013.98 1014.06 1014.04 1013.92 1014.02 1014.20 1014.28 1014.25 1013.96 1013.82 1013.86 1013.71
1005.51 1005.70 1006.63 1007.00 1007.38 1008.00 1008.56 1008.97 1009.22 1009.41 1009.75 1010.13 1010.64 1011.06 1011.29 1011.57 1011.90 1012.18 1012.48 1012.57 1012.71 1013.00 1013.07 1013.24 1013.33 1013.40 1013.58 1013.59 1013.40 1013.39 1013.74 1014.01 1014.01 1014.00 1014.06 1014.12 1014.22 1014.19 1014.19 1014.05 1013.98 1014.03 1014.00
1005.27 1005.65 1005.91 1006.36 1006.42 1007.41 1008.13 1008.69 1009.34 1009.58 1009.91 1010.21 1010.60 1010.97 1011.34 1011.68 1011.95 1012.20 1012.38 1012.55 1012.77 1012.98 1013.02 1013.11 1013.26 1013.34 1013.38 1013.48 1013.46 1013.49 1013.52 1013.65 1013.82 1013.75 1013.96 1014.01 1014.16 1014.26 1014.21 1014.00 1014.07 1014.09 1014.23
1003.66 1004.67 1005.42 1006.07 1006.66 1006.31 1007.45 1008.25 1009.11 1009.46 1009.89 1010.22 1010.61 1010.89 1011.29 1011.72 1012.01 1012.32 1012.51 1012.52 1012.77 1012.95 1013.11 1013.12 1013.28 1013.35 1013.28 1013.39 1013.39 1013.39 1013.43 1013.42 1013.54 1013.62 1013.75 1013.91 1014.14 1014.17 1014.17 1014.08 1014.04 1014.14 1014.22
1004.06 1003.76 1004.37 1005.30 1005.71 1006.22 1006.89 1007.65 1008.62 1009.32 1009.66 1010.03 1010.36 1010.85 1011.20 1011.68 1012.04 1012.20 1012.39 1012.52 1012.70 1012.84 1013.16 1013.23 1013.29 1013.31 1013.25 1013.18 1013.21 1013.13 1013.00 1013.12 1013.47 1013.67 1013.61 1013.74 1014.02 1014.16 1014.17 1014.04 1014.09 1014.12 1014.25
1004.44 1003.60 1003.88 1004.29 1005.01 1005.29 1006.28 1007.26 1008.09 1008.86 1009.36 1009.66 1010.05 1010.58 1010.98 1011.46 1011.98 1011.97 1012.16 1012.35 1012.51 1012.71 1012.90 1013.04 1013.09 1013.23 1013.14 1012.93 1012.80 1012.67 1012.52 1013.01 1013.40 1013.71 1013.65 1013.72 1014.01 1014.13 1014.11 1014.21 1014.26 1014.17 1014.19
1004.04 1004.43 1003.59 1003.79 1004.08 1004.66 1005.42 1006.02 1007.23 1008.31 1008.86 1009.47 1009.87 1010.28 1010.70 1010.88 1011.48 1011.72 1012.03 1012.23 1012.41 1012.49 1012.58 1012.62 1012.88 1013.05 1012.96 1012.88 1012.73 1012.58 1012.77 1013.05 1013.36 1013.63 1013.64 1013.86 1013.99 1014.07 1014.07 1014.26 1014.26 1014.11 1014.16
1003.12 1003.19 1004.25 1003.83 1003.91 1004.53 1004.96 1005.59 1006.26 1007.42 1008.38 1009.11 1009.40 1009.82 1010.11 1010.50 1010.82 1011.20 1011.56 1011.78 1011.93 1012.21 1012.35 1012.48 1012.73 1012.67 1012.84 1012.72 1012.50 1012.55 1012.50 1012.85 1013.31 1013.36 1013.57 1013.79 1013.93 1013.93 1014.06 1014.16 1014.02 1014.07 1014.13
1002.46 1002.65 1003.08 1003.87 1003.71 1004.14 1004.74 1005.49 1006.25 1006.61 1007.52 1008.67 1009.11 1009.63 1010.05 1010.32 1010.33 1010.69 1011.15 1011.45 1011.40 1011.78 1012.13 1012.41 1012.48 1012.69 1012.95 1012.74 1012.81 1012.98 1012.90 1012.86 1013.12 1013.30 1013.48 1013.81 1013.95 1013.91 1013.88 1013.99 1013.90 1014.03 1013.99
1001.60 1002.04 1002.96 1003.91 1004.31 1004.60 1005.45 1006.27 1006.13 1006.89 1007.26 1007.56 1008.36 1009.01 1009.66 1010.02 1010.30 1010.35 1010.69 1011.02 1011.07 1011.44 1011.80 1012.08 1012.22 1012.45 1012.98 1013.16 1013.00 1013.17 1013.27 1013.41 1013.39 1013.41 1013.58 1013.81 1013.88 1013.92 1013.84 1013.79 1013.72 1013.85 1013.88
1001.30 1001.39 1002.27 1003.32 1004.50 1005.06 1005.32 1006.36 1007.15 1006.87 1006.95 1007.22 1007.60 1008.55 1008.92 1009.31 1009.76 1010.14 1010.34 1010.67 1010.85 1011.32 1011.79 1011.95 1011.92 1012.57 1013.05 1013.27 1013.21 1013.52 1013.59 1013.76 1013.73 1013.79 1013.85 1013.78 1013.72 1013.75 1013.92 1014.24 1014.01 1013.82 1013.64
1001.41 1001.63 1002.13 1002.81 1003.99 1005.12 1005.30 1006.02 1007.17 1007.40 1007.24 1007.10 1007.38 1007.81 1008.48 1008.93 1009.10 1009.62 1009.92 1010.58 1010.84 1011.17 1011.40 1011.58 1012.23 1012.84 1013.40 1013.58 1013.80 1013.98 1014.27 1014.17 1014.03 1013.97 1014.08 1014.42 1014.24 1014.08 1014.11 1014.05 1014.25 1014.12 1014.03
1001.12 1001.44 1002.08 1002.37 1003.19 1004.17 1005.08 1004.78 1006.25 1006.60 1006.45 1006.66 1007.16 1007.49 1007.81 1008.44 1008.87 1009.22 1009.52 1010.20 1010.65 1011.19 1011.43 1011.70 1012.19 1013.11 1013.74 1013.78 1014.25 1014.61 1014.90 1014.77 1014.36 1014.70 1014.72 1014.83 1014.86 1014.54 1014.55 1014.66 1014.68 1014.61 1014.73
1000.44 1000.93 1001.89 1002.21 1002.55 1003.37 1003.94 1004.50 1003.87 1004.71 1005.88 1006.55 1006.48 1007.09 1007.53 1007.80 1008.48 1008.58 1009.30 1010.01 1010.49 1010.87 1011.42 1011.79 1012.22 1013.03 1013.91 1014.07 1014.20 1014.51 1015.20 1015.38 1015.39 1015.21 1015.51 1015.35 1015.42 1015.36 1015.36 1015.37 1015.29 1015.20 1015.33
999.13 1000.03 1000.50 1001.71 1002.06 1002.53 1003.15 1004.52 1004.35 1003.72 1004.08 1005.44 1005.28 1006.35 1007.21 1007.77 1007.99 1008.32 1009.21 1009.97 1010.42 1010.87 1011.48 1012.00 1012.57 1013.06 1013.47 1014.37 1014.54 1014.51 1014.63 1015.05 1015.68 1015.93 1015.97 1015.94 1015.98 1016.05 1016.13 1016.12 1016.15 1016.05 1015.87
998.15 999.21 999.40 1000.34 1001.34 1001.55 1001.94 1002.24 1003.49 1003.91 1003.50 1003.99 1005.11 1006.07 1007.02 1007.36 1007.72 1008.23 1008.92 1010.03 1010.57 1011.07 1011.74 1012.22 1012.95 1013.49 1013.61 1014.35 1014.81 1015.16 1015.41 1015.51 1015.73 1016.16 1016.53 1016.64 1016.44 1016.46 1016.72 1016.62 1016.67 1016.58 1016.35
998.39 998.19 998.72 999.51 1000.62 1001.00 1000.91 1001.50 1001.78 1003.08 1003.14 1003.97 1004.89 1006.00 1006.60 1006.70 1007.64 1008.28 1008.86 1009.97 1010.65 1011.25 1012.03 1012.64 1013.32 1013.69 1014.14 1014.61 1015.14 1015.39 1015.74 1016.02 1016.46 1016.80 1017.33 1017.49 1017.56 1017.15 1017.09 1017.13 1017.15 1017.10 1016.80
Wind_Speed
8 8 15 17 18 18 19 19 19 19 19 18 18 17 17 18 18 18 18 18 17 16 15 14 12 11 10 10 10 9 10 10 11 12 12 12 12 11 9 12 9 7 8
15 13 16 17 18 18 19 19 19 19 19 19 17 17 17 17 18 17 17 16 15 15 14 13 12 10 9 9 9 9 10 10 9 10 10 9 9 9 10 11 8 6 6
17 15 15 18 19 19 19 19 19 19 19 19 18 17 16 17 17 16 15 15 15 15 13 12 10 9 8 7 7 8 9 8 7 7 7 3 2 5 7 8 8 7 5
18 14 15 19 20 20 20 20 19 19 19 19 18 17 16 16 16 15 14 13 14 13 12 10 9 8 7 6 6 7 7 7 6 4 1 2 3 4 5 8 7 6 5
16 14 16 20 20 20 20 20 19 19 20 19 18 18 17 16 15 15 13 13 13 12 11 9 8 7 6 4 5 5 6 6 5 3 4 5 5 5 8 6 6 6 6
15 13 19 20 21 20 20 20 20 19 19 19 19 17 17 16 15 14 13 12 12 12 10 9 7 6 5 3 3 3 4 4 4 3 5 5 6 6 9 5 4 4 5
14 13 15 19 20 21 21 21 20 20 19 19 19 18 18 15 15 14 13 12 11 11 9 8 7 5 4 2 1 1 1 3 2 3 5 5 5 6 6 2 1 1 3
17 14 15 17 18 20 20 21 20 20 19 19 19 17 18 15 15 13 13 12 11 10 9 8 7 5 4 3 2 2 3 4 4 4 3 3 5 4 1 3 2 2 2
16 14 13 14 15 19 18 19 20 19 19 18 18 17 17 16 15 13 12 12 10 8 9 7 6 5 5 4 3 4 4 4 1 3 3 3 4 4 5 5 7 7 6
17 14 15 15 13 13 11 17 19 19 18 17 17 16 16 15 14 13 11 11 10 8 8 7 5 5 5 5 4 6 5 6 2 4 2 3 5 5 5 8 10 11 12
12 16 15 15 15 13 13 12 15 20 19 18 16 16 13 7 8 10 10 11 10 9 8 7 6 6 6 6 7 7 3 0 3 1 2 7 6 4 5 7 10 10 11
15 16 16 16 18 16 11 13 8 12 9 9 10 12 8 6 6 8 9 11 10 9 8 7 6 6 6 3 3 5 1 2 2 1 3 8 5 5 5 8 9 10 9
21 16 17 16 14 18 13 10 6 7 7 8 12 9 6 6 5 4 3 4 4 7 3 4 3 3 4 3 4 3 3 2 0 3 5 8 7 5 5 8 9 9 8
19 20 19 18 18 16 11 10 11 8 9 7 10 8 7 5 4 4 4 4 4 3 5 4 3 4 5 5 6 6 4 3 4 3 5 10 7 6 6 7 7 8 9
14 18 20 20 19 16 16 11 11 9 8 8 8 9 6 6 6 5 5 4 4 4 4 4 4 4 5 5 6 5 4 6 5 3 3 9 8 6 6 6 6 7 8
11 11 18 21 19 18 16 17 12 9 9 8 8 9 9 7 7 6 5 5 4 4 4 4 4 4 5 5 5 5 7 6 6 5 3 3 8 7 7 4 5 6 6
9 16 16 17 17 18 17 15 13 11 9 9 9 11 12 8 9 8 6 5 6 5 6 4 4 4 4 4 2 2 4 6 5 5 4 4 4 7 7 7 6 5 5
7 14 17 14 16 18 15 13 11 12 11 9 8 8 11 10 10 8 5 6 5 4 5 4 5 3 3 2 1 2 2 4 4 3 4 4 4 3 5 7 7 6 6
8 11 11 8 11 12 9 3 8 9 10 11 9 8 12 10 9 9 7 5 6 5 5 5 3 3 3 1 3 2 3 1 3 3 4 4 5 4 3 7 10 6 8
7 13 15 9 8 7 8 3 2 5 7 10 10 9 12 10 8 10 6 6 5 5 4 3 5 3 3 2 2 3 2 2 2 1 2 2 3 4 1 4 4 4 8
5 9 15 16 12 8 9 8 2 6 4 7 8 13 12 11 9 8 5 5 6 8 6 6 4 5 3 3 3 3 4 4 3 4 3 4 5 5 4 4 3 3 3
7 9 14 18 17 14 10 8 6 2 4 8 8 10 13 12 9 8 7 6 6 5 6 5 5 3 2 2 3 2 2 4 4 7 5 6 8 5 7 7 6 6 4
4 11 14 19 20 17 19 10 9 12 2 5 10 9 11 14 11 9 9 7 7 5 5 5 5 6 3 3 3 4 2 3 1 3 5 5 7 6 5 7 8 7 7
9 10 15 18 22 20 21 14 15 16 13 9 10 10 11 12 11 10 9 8 8 4 6 4 4 3 4 4 2 3 4 3 3 1 2 3 4 7 6 5 6 7 5
11 6 11 19 20 22 22 23 17 16 12 6 8 14 14 9 11 11 11 8 7 5 5 7 6 5 3 4 2 2 4 4 3 3 2 4 4 4 4 5 5 4 5
11 3 9 16 18 22 24 23 23 21 10 11 10 11 10 9 8 10 12 9 7 8 8 7 7 8 7 6 4 5 2 3 1 3 3 1 1 3 3 4 5 4 5
Wind_Direction
169 175 155 139 134 130 125 120 118 116 115 115 115 114 113 112 112 112 113 113 113 115 117 114 113 114 111 106 109 109 108 109 111 115 119 123 120 114 102 129 119 110 106
145 160 156 145 139 137 131 127 124 122 121 119 117 116 115 114 112 111 112 112 114 118 117 116 114 112 111 112 111 106 100 95 93 103 108 111 124 121 108 120 119 121 118
146 157 155 151 145 141 135 132 131 129 126 124 120 119 118 116 114 115 116 118 119 119 120 116 113 111 106 102 99 93 91 91 88 99 97 111 130 140 137 130 133 137 137
147 158 152 153 149 145 141 139 138 134 131 130 126 124 119 118 117 116 117 118 127 125 123 121 115 107 104 96 85 86 86 82 71 54 18 293 266 191 184 152 152 153 163
149 158 151 154 151 148 145 143 142 140 138 137 132 129 125 125 123 122 124 125 127 131 131 126 119 111 102 94 82 76 73 68 51 10 283 249 241 207 227 178 169 178 191
149 151 152 156 152 151 151 148 146 145 143 142 137 134 132 131 127 125 126 128 134 136 135 133 125 122 115 104 79 66 60 55 54 313 288 268 189 187 227 200 198 214 211
146 146 148 158 156 156 155 152 149 149 147 146 143 140 142 138 134 132 134 136 137 139 138 134 131 136 134 131 106 26 24 36 17 340 333 104 118 179 218 173 95 291 280
146 146 148 159 161 159 160 155 153 152 152 151 149 147 146 143 140 141 141 139 141 142 142 144 147 151 165 193 232 271 315 33 11 339 7 114 133 182 77 46 15 311 304
140 144 149 156 167 166 162 159 155 155 153 153 151 151 149 151 145 146 146 143 144 146 145 151 159 179 208 225 257 292 303 6 54 314 160 111 140 81 69 65 52 43 29
144 147 155 159 167 172 162 163 157 156 153 151 153 154 154 150 148 151 147 144 150 157 155 161 176 206 234 256 274 283 317 354 342 316 79 100 102 99 89 68 62 58 54
152 153 159 161 165 170 170 166 161 159 155 152 155 156 154 151 153 153 157 153 160 166 167 180 193 220 244 262 267 274 331 282 286 260 154 141 133 116 91 80 66 56 53
166 171 164 167 162 164 170 167 159 163 158 156 160 161 158 156 157 158 161 163 170 175 181 191 208 231 252 257 284 301 225 230 263 184 158 151 145 153 105 81 75 65 55
178 168 174 167 169 158 160 166 161 169 166 162 165 161 153 152 165 158 160 169 166 188 198 198 217 236 244 267 268 262 231 226 354 162 159 151 174 151 117 98 81 70 64
180 177 171 174 168 164 155 161 169 170 171 167 171 162 159 160 165 166 172 175 179 189 200 201 212 231 249 252 254 259 257 164 157 169 168 168 171 159 113 95 93 91 83
205 180 181 172 173 162 158 161 167 172 168 169 166 173 166 163 175 174 183 178 196 187 197 203 217 212 239 243 263 232 180 155 155 174 152 174 168 140 115 107 112 108 97
201 221 185 181 174 163 168 163 163 161 168 165 170 180 180 170 179 188 179 191 205 199 196 199 208 231 239 215 225 183 159 157 167 170 169 169 157 138 129 149 156 126 122
212 200 201 189 174 172 171 163 159 160 164 170 177 181 185 180 186 188 187 182 206 200 197 205 203 231 243 253 191 251 119 144 160 168 163 159 163 158 164 196 185 159 151
176 189 188 193 179 175 170 166 169 167 163 172 178 178 193 192 187 188 190 193 198 193 193 202 191 186 169 60 346 327 95 114 134 130 133 156 178 181 203 215 221 201 197
170 178 173 196 180 176 157 155 164 170 170 170 173 176 192 202 192 189 197 195 192 179 182 169 149 146 100 107 92 48 65 59 110 108 121 158 196 201 206 236 238 226 222
187 173 168 160 169 149 115 126 235 180 176 177 172 182 184 199 192 191 184 176 168 129 165 152 124 81 128 147 74 57 35 78 52 89 164 189 201 204 245 309 300 258 233
194 169 173 155 153 156 147 139 174 210 207 183 182 176 181 195 191 174 162 162 153 149 161 139 100 111 52 32 68 12 34 36 50 354 359 358 353 33 65 31 337 14 359
165 174 177 170 155 159 168 157 165 209 208 189 185 178 183 189 180 167 156 158 141 134 145 134 126 102 80 40 118 92 40 349 4 32 42 49 41 41 39 47 43 43 51
198 169 179 183 166 165 170 186 181 164 151 178 184 182 186 181 175 156 156 150 149 141 142 139 131 121 142 34 53 137 91 199 314 32 49 50 47 36 27 28 30 40 58
250 174 175 187 178 171 172 184 195 188 180 188 178 180 180 178 166 152 146 148 146 125 126 121 108 129 115 119 54 29 71 126 166 22 12 49 57 45 27 36 42 46 46
257 194 191 182 190 182 183 188 190 212 197 152 162 168 179 163 159 154 141 138 129 121 102 111 102 97 94 115 116 107 52 55 46 116 260 336 17 24 51 48 53 39 9
284 210 183 183 195 190 182 192 191 205 169 152 158 172 171 161 151 149 137 133 124 114 111 103 101 99 96 86 76 66 123 142 74 83 75 312 211 303 62 57 50 8 354